When you browse on this site, cookies collect data to enhance your experience and personalize the content and advertising you see.
Visit our Privacy Policy to learn more. By continuing to use the site, you agree to this use of cookies and data.
  • In Czech Republic
  • List of Countries
  • For 7 days
  • Water Temperature
  • Satellite Maps
  • Weather Map
  • Weather Widgets
  • user-avatar
    Login

    Hourly Weather Almendralejo

    Today, 17 December, Monday

    Time Temperature Precipitation Wind Pressure Humidity
    00:00 +8°C° 0 mm 1 mps 740 mmHg 93%
    01:00 +8°C° 0 mm 1 mps 740 mmHg 93%
    02:00 +6°C° 0 mm 0 mps 740 mmHg 92%
    03:00 +6°C° 0 mm 0 mps 740 mmHg 92%
    04:00 +5°C° 0 mm 0 mps 740 mmHg 92%
    05:00 +5°C° 0 mm 0 mps 740 mmHg 92%
    06:00 +5°C° 0 mm 0 mps 740 mmHg 92%
    07:00 +6°C° 0 mm 0 mps 740 mmHg 89%
    08:00 +7°C° 0 mm 1 mps 740 mmHg 87%
    09:00 +8°C° 0 mm 1 mps 740 mmHg 84%
    10:00 +10°C° 0 mm 1 mps 740 mmHg 75%
    11:00 +11°C° 0 mm 1 mps 740 mmHg 67%
    12:00 +13°C° 0 mm 2 mps 740 mmHg 58%
    13:00 +14°C° 0 mm 2 mps 739 mmHg 54%
    14:00 +14°C° 0 mm 1 mps 739 mmHg 51%
    15:00 +15°C° 0 mm 1 mps 738 mmHg 47%
    16:00 +13°C° 0 mm 1 mps 738 mmHg 54%
    17:00 +11°C° 0 mm 1 mps 738 mmHg 60%
    18:00 +9°C° 0 mm 1 mps 738 mmHg 67%
    19:00 +9°C° 0 mm 1 mps 738 mmHg 68%
    20:00 +8°C° 0 mm 1 mps 738 mmHg 70%
    21:00 +7°C° 0 mm 2 mps 738 mmHg 71%
    22:00 +7°C° 0 mm 2 mps 738 mmHg 71%
    23:00 +6°C° 0 mm 2 mps 737 mmHg 72%

    Tomorrow, 18 December, Tuesday

    Time Temperature Precipitation Wind Pressure Humidity
    00:00 +6°C° 0 mm 2 mps 737 mmHg 72%
    01:00 +6°C° 0 mm 2 mps 737 mmHg 72%
    02:00 +6°C° 0 mm 2 mps 737 mmHg 73%
    03:00 +6°C° 0 mm 2 mps 736 mmHg 74%
    04:00 +5°C° 0 mm 2 mps 736 mmHg 75%
    05:00 +5°C° 0 mm 2 mps 736 mmHg 76%
    06:00 +5°C° 0 mm 2 mps 735 mmHg 77%
    07:00 +6°C° 0 mm 2 mps 736 mmHg 77%
    08:00 +7°C° 0 mm 2 mps 736 mmHg 77%
    09:00 +8°C° 0 mm 3 mps 736 mmHg 76%
    10:00 +10°C° 0 mm 3 mps 736 mmHg 71%
    11:00 +13°C° 0 mm 4 mps 735 mmHg 65%
    12:00 +15°C° 0 mm 5 mps 735 mmHg 60%
    13:00 +15°C° 0 mm 5 mps 734 mmHg 63%
    14:00 +15°C° 0 mm 5 mps 734 mmHg 66%
    15:00 +15°C° 0 mm 5 mps 733 mmHg 69%
    16:00 +14°C° 0.2 mm 5 mps 733 mmHg 74%
    17:00 +14°C° 0.2 mm 5 mps 733 mmHg 80%
    18:00 +13°C° 0.2 mm 5 mps 733 mmHg 85%
    19:00 +12°C° 1.2 mm 5 mps 734 mmHg 88%
    20:00 +12°C° 1.2 mm 4 mps 734 mmHg 90%
    21:00 +12°C° 1.2 mm 4 mps 735 mmHg 93%
    22:00 +10°C° 0.1 mm 3 mps 735 mmHg 93%
    23:00 +9°C° 0.1 mm 3 mps 735 mmHg 94%

    Day after tomorrow, 19 December, Wednesday

    Time Temperature Precipitation Wind Pressure Humidity
    00:00 +8°C° 0.1 mm 2 mps 735 mmHg 94%
    01:00 +7°C° 0 mm 2 mps 735 mmHg 94%
    02:00 +6°C° 0 mm 2 mps 736 mmHg 95%
    03:00 +6°C° 0 mm 2 mps 736 mmHg 95%
    04:00 +6°C° 0 mm 1 mps 736 mmHg 94%
    05:00 +6°C° 0 mm 1 mps 736 mmHg 94%
    06:00 +6°C° 0 mm 1 mps 736 mmHg 94%
    07:00 +6°C° 0 mm 1 mps 737 mmHg 92%
    08:00 +7°C° 0 mm 1 mps 738 mmHg 90%
    09:00 +7°C° 0 mm 1 mps 738 mmHg 88%
    10:00 +8°C° 0 mm 2 mps 738 mmHg 82%
    11:00 +10°C° 0 mm 2 mps 738 mmHg 76%
    12:00 +12°C° 0 mm 2 mps 738 mmHg 71%
    13:00 +12°C° 0 mm 3 mps 738 mmHg 70%
    14:00 +12°C° 0 mm 3 mps 738 mmHg 69%
    15:00 +12°C° 0 mm 3 mps 737 mmHg 68%
    16:00 +12°C° 0 mm 2 mps 737 mmHg 74%
    17:00 +10°C° 0 mm 2 mps 738 mmHg 81%
    18:00 +9°C° 0 mm 1 mps 738 mmHg 87%
    19:00 +9°C° 0 mm 1 mps 738 mmHg 88%
    20:00 +9°C° 0 mm 1 mps 739 mmHg 90%
    21:00 +8°C° 0 mm 1 mps 739 mmHg 91%
    22:00 +8°C° 0 mm 1 mps 739 mmHg 91%
    23:00 +8°C° 0 mm 1 mps 739 mmHg 92%

    20 December, Thursday

    Time Temperature Precipitation Wind Pressure Humidity
    00:00 +8°C° 0 mm 1 mps 739 mmHg 92%
    01:00 +7°C° 0 mm 1 mps 739 mmHg 93%
    02:00 +7°C° 0 mm 1 mps 739 mmHg 93%
    03:00 +7°C° 0 mm 1 mps 739 mmHg 94%
    04:00 +7°C° 0 mm 1 mps 739 mmHg 94%
    05:00 +6°C° 0 mm 0 mps 739 mmHg 94%
    06:00 +6°C° 0 mm 0 mps 739 mmHg 94%
    07:00 +6°C° 0 mm 0 mps 739 mmHg 92%
    08:00 +7°C° 0 mm 0 mps 740 mmHg 90%
    09:00 +8°C° 0 mm 0 mps 740 mmHg 89%
    10:00 +9°C° 0 mm 0 mps 740 mmHg 82%
    11:00 +12°C° 0 mm 1 mps 740 mmHg 75%
    12:00 +13°C° 0 mm 1 mps 740 mmHg 69%
    13:00 +13°C° 0 mm 1 mps 740 mmHg 67%
    14:00 +14°C° 0 mm 2 mps 739 mmHg 66%
    15:00 +14°C° 0 mm 2 mps 739 mmHg 64%
    16:00 +13°C° 0 mm 1 mps 739 mmHg 71%
    17:00 +11°C° 0 mm 1 mps 739 mmHg 77%
    18:00 +10°C° 0 mm 1 mps 740 mmHg 84%
    19:00 +9°C° 0 mm 0 mps 740 mmHg 85%
    20:00 +8°C° 0 mm 0 mps 740 mmHg 86%
    21:00 +8°C° 0 mm 0 mps 741 mmHg 87%
    22:00 +8°C° 0 mm 0 mps 741 mmHg 88%
    23:00 +8°C° 0 mm 0 mps 741 mmHg 88%

    21 December, Friday

    Time Temperature Precipitation Wind Pressure Humidity
    00:00 +7°C° 0 mm 0 mps 741 mmHg 89%
    01:00 +7°C° 0 mm 0 mps 741 mmHg 89%
    02:00 +7°C° 0 mm 0 mps 740 mmHg 89%
    03:00 +7°C° 0 mm 0 mps 740 mmHg 90%
    04:00 +7°C° 0 mm 0 mps 740 mmHg 90%
    05:00 +7°C° 0 mm 0 mps 740 mmHg 90%
    06:00 +6°C° 0 mm 0 mps 740 mmHg 90%
    07:00 +7°C° 0 mm 0 mps 741 mmHg 87%
    08:00 +8°C° 0 mm 0 mps 741 mmHg 85%
    09:00 +10°C° 0 mm 1 mps 742 mmHg 83%
    10:00 +11°C° 0 mm 1 mps 742 mmHg 76%
    11:00 +12°C° 0 mm 0 mps 742 mmHg 70%
    12:00 +14°C° 0 mm 0 mps 742 mmHg 63%
    13:00 +15°C° 0 mm 1 mps 741 mmHg 62%
    14:00 +16°C° 0 mm 1 mps 741 mmHg 62%
    15:00 +16°C° 0 mm 1 mps 740 mmHg 61%
    16:00 +15°C° 0 mm 1 mps 740 mmHg 68%
    17:00 +13°C° 0 mm 1 mps 741 mmHg 75%
    18:00 +11°C° 0 mm 0 mps 741 mmHg 82%
    19:00 +10°C° 0 mm 0 mps 741 mmHg 84%
    20:00 +10°C° 0 mm 0 mps 741 mmHg 85%
    21:00 +11°C° 0 mm 1 mps 741 mmHg 87%
    22:00 +10°C° 0 mm 1 mps 741 mmHg 87%
    23:00 +10°C° 0 mm 1 mps 741 mmHg 88%

    22 December, Saturday

    Time Temperature Precipitation Wind Pressure Humidity
    00:00 +10°C° 0 mm 1 mps 741 mmHg 89%
    01:00 +10°C° 0 mm 1 mps 741 mmHg 90%
    02:00 +9°C° 0 mm 1 mps 740 mmHg 91%
    03:00 +9°C° 0 mm 1 mps 740 mmHg 91%
    04:00 +9°C° 0 mm 1 mps 740 mmHg 92%
    05:00 +9°C° 0 mm 1 mps 740 mmHg 93%
    06:00 +9°C° 0 mm 1 mps 740 mmHg 93%
    07:00 +9°C° 0 mm 1 mps 740 mmHg 92%
    08:00 +10°C° 0 mm 1 mps 740 mmHg 91%
    09:00 +10°C° 0 mm 1 mps 741 mmHg 90%
    10:00 +12°C° 0 mm 2 mps 740 mmHg 82%
    11:00 +14°C° 0 mm 2 mps 740 mmHg 75%
    12:00 +16°C° 0 mm 2 mps 740 mmHg 67%
    13:00 +17°C° 0 mm 2 mps 740 mmHg 65%
    14:00 +18°C° 0 mm 2 mps 739 mmHg 63%
    15:00 +18°C° 0 mm 2 mps 739 mmHg 61%
    16:00 +17°C° 0 mm 2 mps 739 mmHg 68%
    17:00 +15°C° 0 mm 2 mps 738 mmHg 76%
    18:00 +13°C° 0 mm 2 mps 738 mmHg 83%
    19:00 +13°C° 0 mm 2 mps 739 mmHg 84%
    20:00 +12°C° 0 mm 2 mps 739 mmHg 85%
    21:00 +12°C° 0 mm 2 mps 739 mmHg 86%
    22:00 +12°C° 0 mm 2 mps 739 mmHg 85%
    23:00 +10°C° 0 mm 2 mps 739 mmHg 84%
    Show more